#timestamp,LO_Frequency,Hit,StdDev 
1515855615.7,286046997.4,N
1515855635.5,286046996.6,N
1515855655.4,286046996.5,N
1515855675.2,286046996.5,N
1515855695.0,286047000.0,N
1515855695.9,286047000.0,N
1515855715.8,286046998.1,N
1515855735.6,286046998.6,N
1515855755.5,286046998.6,N
1515855775.3,286046999.0,N
1515855795.1,286046998.6,N
1515855815.9,286046999.6,N
1515855835.7,286046999.4,N
1515855855.6,286046998.7,N
1515855875.4,286047000.4,N
1515855895.2,286046999.8,N
1515855915.1,286046999.9,N
1515855916.0,286046999.9,N
1515855935.8,286047002.2,N
1515855955.7,286047002.8,N
1515855975.5,286047000.1,N
1515855995.3,286047002.4,N
1515856015.2,286047002.5,N
1515856035.0,286047002.5,N
1515856035.9,286047002.5,N
1515856055.7,286047002.2,N
1515856075.6,286047002.8,N
1515856095.4,286047002.8,N
1515856115.3,286046999.9,N
1515856135.1,286047002.1,N
1515856136.0,286047002.1,N
1515856155.8,286047002.3,N
1515856175.7,286047002.8,N
1515856195.5,286047002.7,N
1515856215.3,286047000.9,N
1515856235.2,286047001.2,N
1515856255.0,286047000.1,N
1515856255.9,286047000.1,N
1515856275.8,286047001.6,N
1515856295.6,286047001.4,N
1515856315.4,286047002.2,N
1515856335.3,286047005.9,Y
1515856355.1,286047014.1,P
1515856375.9,286047013.5,N
1515856395.7,286047006.2,N
1515856415.6,286047004.1,N
1515856435.4,286047000.1,N
1515856455.2,286047000.9,N
1515856475.1,286047000.0,N
1515856476.0,286047000.0,N
1515856495.8,286047000.6,N
1515856515.7,286047000.7,N
1515856535.5,286047000.8,N
1515856555.3,286047000.9,N
1515856575.2,286046999.8,N
1515856595.0,286047001.0,N
1515856595.9,286047001.0,N
1515856615.7,286046998.9,N
1515856635.6,286046999.5,N
1515856655.4,286046999.6,N
1515856675.3,286046997.6,N
1515856695.1,286046997.9,N
1515856715.8,286046998.0,N
1515856735.7,286046995.3,N
1515856755.5,286046998.0,N
1515856775.4,286046997.3,N
1515856795.2,286046995.2,N
1515856815.0,286046995.3,N
1515856815.9,286046995.3,N
1515856835.8,286046997.1,N
1515856855.6,286046997.7,N
1515856875.4,286046997.3,N
1515856895.3,286046996.7,N
1515856915.1,286046997.7,N
1515856935.9,286046995.5,N
1515856955.7,286046995.5,N
1515856975.5,286046998.0,N
1515856995.4,286046997.5,N
1515857015.2,286046997.7,N
1515857035.1,286046995.3,N
1515857036.0,286046995.3,N
1515857055.8,286046995.0,N
1515857075.6,286046996.9,N
1515857095.5,286046997.3,N
1515857115.3,286046997.0,N
1515857135.1,286046997.5,N
1515857155.9,286046996.8,N
1515857175.7,286046995.0,Y
1515857195.6,286047000.0,P
1515857215.4,286046998.8,N
1515857235.2,286046998.7,N
1515857255.1,286046996.6,Y
1515857256.0,286046996.6,P
1515857275.8,286046998.2,N
1515857295.6,286046998.2,N
1515857315.5,286046998.3,N
1515857335.3,286046998.8,N
1515857355.2,286046998.5,N
1515857375.9,286047001.0,N
1515857395.7,286047001.0,N
1515857415.6,286047002.8,N
1515857435.4,286047002.4,N
1515857455.2,286047002.8,N
1515857475.1,286047002.8,N
1515857476.0,286047002.8,N
1515857495.8,286046999.7,N
1515857515.7,286047000.0,N
1515857535.5,286047002.2,N
1515857555.3,286047004.2,N
1515857575.2,286047001.3,N
1515857595.0,286047002.0,N
1515857595.9,286047002.0,N
1515857615.8,286047001.5,N
1515857635.6,286047002.0,N
1515857655.4,286047001.5,N
1515857675.3,286047002.0,N
1515857695.1,286047002.1,N
1515857715.8,286047000.2,N
1515857735.7,286047002.5,N
1515857755.5,286046999.8,N
1515857775.3,286047000.6,N
1515857795.2,286047000.2,N
1515857815.0,286047004.1,N
1515857815.9,286047004.1,N
1515857835.8,286047010.0,Y
1515857855.6,286047018.4,P
1515857875.4,286047012.2,N
1515857895.3,286047009.9,N
1515857915.1,286047006.7,N
1515857935.9,286047007.5,N
1515857955.7,286047005.9,N
1515857975.5,286047003.1,N
1515857995.4,286047003.7,N
1515858015.2,286047001.5,N
1515858035.0,286046999.8,N
1515858035.9,286046999.8,N
1515858055.8,286047000.5,N
1515858075.6,286046998.7,N
1515858095.5,286046999.2,N
1515858115.3,286046997.8,N
1515858135.1,286046997.5,N
1515858155.9,286046997.8,N
1515858175.7,286046997.5,N
1515858195.5,286046997.7,N
1515858215.4,286046998.0,N
1515858235.2,286046997.7,N
1515858285.1,286046997.5,E
1515858295.0,286046996.8,N
1515858295.9,286046996.8,P
1515858315.8,286046998.8,P
1515858335.6,286046998.8,N
1515858355.4,286047001.1,N
1515858375.3,286046998.6,N
1515858395.1,286047002.2,N
1515858415.8,286047000.3,N
1515858435.7,286047000.9,N
1515858455.5,286047001.4,N
1515858475.4,286047004.2,N
1515858495.2,286047004.8,N
1515858515.0,286047006.2,N
1515858515.9,286047006.2,N
1515858535.8,286047006.9,N
1515858555.6,286047005.3,N
1515858575.4,286047007.0,N
1515858595.3,286047007.1,N
1515858615.1,286047008.9,N
1515858635.9,286047006.5,N
1515858655.7,286047010.1,N
1515858675.5,286047007.7,N
1515858695.4,286047008.9,N
1515858715.2,286047009.2,N
1515858735.0,286047006.8,N
1515858735.9,286047006.8,N
1515858755.8,286047007.4,N
1515858775.6,286047005.1,N
1515858795.5,286047005.9,N
1515858815.3,286047004.5,N
1515858835.1,286047007.3,N
1515858855.9,286047010.5,N
1515858875.7,286047010.9,Y
1515858895.6,286047008.6,P
1515858915.4,286047008.0,P
1515858935.2,286047007.0,P
1515858955.1,286047006.7,Y
1515858956.0,286047006.7,P
1515858975.8,286046998.7,P
1515858995.7,286046999.4,N
1515859015.5,286046998.4,N
1515859035.3,286046999.9,N
1515859055.2,286047000.9,N
1515859075.0,286047000.6,N
1515859075.9,286047000.6,N
1515859095.8,286046998.1,N
1515859115.6,286046999.3,N
1515859135.4,286046997.2,N
1515859155.3,286046999.2,N
1515859175.1,286046997.3,N
1515859195.8,286046999.1,N
